DW2893 Weather Reports


Display with metric or nautical units.
time (UTC)temp
F
wind
direction
speed
MPH
gust
MPH
rain 1hr
in
rain 24hr
in
rain mn
in
humidity
%
barometer
mb
20181016140304 44 353 5.0 10.0 0.20 1.94 1.25 92 1023.7
20181016135804 44 9 6.0 10.0 0.21 1.97 1.24 92 1023.1
20181016135304 44 349 5.0 12.0 0.21 1.98 1.23 92 1023.1
20181016134805 44 1 4.0 8.0 0.21 1.99 1.21 92 1023.1
20181016134304 44 359 6.0 8.0 0.21 2.00 1.19 92 1023.1
20181016133804 44 10 6.0 10.0 0.20 2.02 1.17 92 1023.1
20181016133307 44 353 5.0 8.0 0.19 2.01 1.15 92 1022.6
20181016132944 44 4 5.0 12.0 0.18 2.00 1.13 92 1022.6
20181016131445 44 342 5.0 12.0 0.19 1.98 1.09 92 1022.6
20181016130444 44 7 7.0 13.0 0.19 1.97 1.06 92 1022.6
20181016125944 44 14 7.0 12.0 0.18 1.96 1.04 92 1022.4
20181016125444 44 9 6.0 12.0 0.18 1.95 1.02 92 1022.7
20181016124944 44 15 3.0 9.0 0.18 1.96 1.01 92 1022.4
20181016124444 44 9 7.0 12.0 0.17 1.95 0.99 92 1022.4
20181016123945 44 15 7.0 14.0 0.16 1.93 0.97 92 1022.2
20181016123444 44 9 8.0 13.0 0.16 1.93 0.96 92 1022.2
20181016122444 44 2 9.0 17.0 0.16 1.92 0.93 92 1022.2
20181016121944 44 1 7.0 16.0 0.16 1.93 0.92 92 1022.4
20181016121444 44 350 9.0 14.0 0.16 1.92 0.90 92 1022.4
20181016120444 44 356 8.0 20.0 0.16 1.92 0.87 92 1022.4
20181016115944 43 3 8.0 12.0 0.16 1.93 0.86 92 1022.4
20181016115444 43 1 8.0 14.0 0.16 1.91 0.84 92 1022.5
20181016113944 43 346 10.0 17.0 0.20 1.88 0.81 92 1022.1
20181016113444 43 2 6.0 14.0 0.21 1.88 0.80 92 1022.1
20181016112444 43 8 10.0 16.0 0.21 1.85 0.77 92 1022.2
20181016111944 43 13 10.0 16.0 0.21 1.84 0.76 92 1022.3
20181016111444 43 355 7.0 14.0 0.21 1.82 0.74 92 1022.3
20181016110444 44 14 9.0 17.0 0.19 1.80 0.71 92 1022.2
20181016105944 44 15 6.0 15.0 0.19 1.80 0.70 92 1022.8
20181016105444 44 7 8.0 16.0 0.17 1.78 0.68 92 1022.8
20181016103444 44 359 6.0 12.0 0.12 1.70 0.59 92 1022.8
20181016102943 44 353 6.0 12.0 0.12 1.69 0.58 92 1023.0
20181016102444 44 351 5.0 10.0 0.11 1.67 0.56 92 1023.0
20181016101944 43 353 6.0 12.0 0.11 1.67 0.55 92 1023.0
20181016101444 43 0 6.0 13.0 0.11 1.65 0.53 92 1023.0
20181016100944 43 3 6.0 10.0 0.11 1.64 0.52 92 1022.9
20181016095944 43 349 7.0 14.0 0.13 1.70 0.51 92 1022.8
20181016094443 43 355 6.0 13.0 0.12 1.83 0.49 92 1022.7
20181016093944 43 14 5.0 8.0 0.12 1.87 0.48 92 1022.9
20181016092944 44 331 5.0 10.0 0.10 1.90 0.46 92 1022.6
20181016091444 44 358 5.0 12.0 0.08 1.92 0.42 92 1021.9
20181016090943 43 342 5.0 12.0 0.08 1.92 0.41 92 1021.9
20181016090443 43 1 4.0 8.0 0.08 1.92 0.40 92 1021.9
20181016085944 43 14 7.0 14.0 0.07 1.90 0.38 92 1021.9
20181016083944 43 15 6.0 16.0 0.08 1.91 0.36 92 1022.6
20181016083444 43 21 10.0 20.0 0.09 1.92 0.36 92 1022.6
20181016082943 43 10 10.0 20.0 0.10 1.96 0.36 92 1022.6
20181016082443 44 25 8.0 17.0 0.10 2.01 0.35 92 1022.6
20181016081943 44 357 7.0 15.0 0.11 2.02 0.35 92 1022.6
20181016081443 43 348 6.0 16.0 0.12 2.02 0.34 92 1022.8
20181016080943 43 345 10.0 16.0 0.12 2.02 0.33 92 1022.8
20181016080444 44 355 8.0 13.0 0.12 2.03 0.32 92 1022.9
20181016074943 44 350 6.0 10.0 0.12 2.08 0.30 92 1022.8
20181016074443 44 4 7.0 15.0 0.11 2.09 0.28 92 1022.9
20181016073944 44 355 7.0 14.0 0.12 2.12 0.28 92 1023.1
20181016072943 44 350 9.0 20.0 0.11 2.17 0.26 92 1023.2
20181016071943 44 2 7.0 12.0 0.12 2.34 0.24 92 1023.0
20181016071443 44 13 6.0 10.0 0.12 2.40 0.22 92 1023.0
20181016070943 44 12 7.0 10.0 0.12 2.52 0.21 92 1023.0
20181016070443 44 10 6.0 12.0 0.13 2.55 0.20 92 1023.1
20181016065943 44 16 5.0 9.0 0.13 2.54 0.19 92 1022.9
20181016065443 44 9 3.0 9.0 0.14 2.53 0.18 92 1022.9
20181016064944 44 14 5.0 9.0 0.15 2.53 0.18 93 1022.9
20181016064443 44 18 6.0 12.0 0.14 2.52 0.17 93 1022.9
20181016063944 44 8 6.0 12.0 0.14 2.51 0.16 93 1022.8
20181016063443 44 0 6.0 12.0 0.14 2.50 0.15 92 1022.9
20181016062943 44 1 6.0 10.0 0.14 2.50 0.15 93 1022.6
20181016062444 44 354 6.0 10.0 0.12 2.49 0.13 92 1022.6
20181016060943 44 338 7.0 12.0 0.09 2.45 0.09 92 1023.3
20181016060444 44 347 5.0 13.0 0.07 2.43 0.07 92 1023.2
20181016055943 44 9 6.0 12.0 0.06 2.42 0.06 92 1022.6
20181016055443 44 12 6.0 12.0 0.04 2.40 0.04 92 1022.6
20181016054943 44 4 5.0 10.0 0.03 2.39 0.03 92 1022.6
20181016054443 44 14 7.0 13.0 0.03 2.39 0.03 92 1022.6
20181016052943 44 13 6.0 12.0 0.01 2.37 0.01 92 1023.2
20181016051943 44 8 6.0 10.0 0.00 2.36 0.00 92 1024.0
20181016051443 44 356 5.0 12.0 0.00 2.36 0.00 92 1024.0
20181016051038 44 12 6.0 9.0 0.00 2.36 0.00 92 1024.0
20181016050443 44 356 6.0 10.0 0.00 2.36 0.00 92 1024.0
20181016045943 44 0 6.0 12.0 0.00 2.36 2.36 92 1024.0
20181016044943 44 11 6.0 12.0 0.00 2.36 2.36 91 1024.0
20181016043943 44 13 7.0 12.0 0.00 2.36 2.36 90 1024.2
20181016042942 44 20 7.0 16.0 0.00 2.36 2.36 90 1024.3
20181016042442 45 10 9.0 15.0 0.00 2.36 2.36 89 1024.3
20181016041943 45 347 9.0 18.0 0.00 2.36 2.36 89 1024.4
20181016040943 45 0 8.0 15.0 0.00 2.36 2.36 89 1024.2
20181016035443 45 359 6.0 13.0 0.00 2.36 2.36 88 1024.4
20181016033443 45 4 7.0 16.0 0.00 2.36 2.36 88 1024.1
20181016032942 45 22 9.0 14.0 0.00 2.36 2.36 87 1024.1
20181016032442 45 8 7.0 15.0 0.00 2.36 2.36 87 1024.1
20181016031943 45 349 8.0 14.0 0.00 2.36 2.36 87 1024.1
20181016031442 45 13 9.0 14.0 0.00 2.36 2.36 88 1023.9
20181016030943 45 5 7.0 13.0 0.00 2.36 2.36 88 1023.8
20181016030442 45 0 8.0 18.0 0.00 2.36 2.36 88 1023.7
20181016025942 45 2 7.0 15.0 0.00 2.36 2.36 88 1023.7
20181016025442 45 358 6.0 16.0 0.00 2.36 2.36 88 1023.6
20181016024942 45 355 7.0 13.0 0.00 2.37 2.36 88 1023.6
20181016024442 45 18 9.0 16.0 0.00 2.37 2.36 89 1023.6
20181016023443 45 17 6.0 10.0 0.00 2.38 2.36 89 1023.6
20181016022942 45 353 7.0 16.0 0.00 2.39 2.36 89 1023.7
20181016022442 45 8 6.0 12.0 0.00 2.40 2.36 90 1023.7
20181016015942 44 8 8.0 14.0 0.00 2.42 2.36 91 1023.2
20181016014943 44 340 7.0 16.0 0.00 2.42 2.36 91 1023.4
20181016014442 44 346 8.0 14.0 0.01 2.43 2.36 91 1023.5
20181016013942 44 354 8.0 13.0 0.01 2.43 2.36 91 1023.5
20181016013442 44 337 6.0 17.0 0.01 2.43 2.36 91 1023.2
20181016012942 44 351 9.0 15.0 0.01 2.43 2.36 92 1023.2
20181016011942 44 358 6.0 14.0 0.01 2.43 2.36 92 1023.2
20181016010942 44 2 7.0 12.0 0.01 2.43 2.36 92 1023.1
20181016010442 43 2 7.0 13.0 0.01 2.43 2.36 92 1023.1
20181016005442 43 0 8.0 13.0 0.02 2.43 2.36 92 1023.0
20181016004442 43 0 9.0 17.0 0.01 2.42 2.35 92 1023.0
20181016003442 43 8 8.0 14.0 0.01 2.42 2.35 92 1022.8
20181016002942 43 5 7.0 16.0 0.01 2.42 2.35 92 1022.6
20181016001942 43 3 11.0 20.0 0.01 2.42 2.35 92 1021.7
20181016001442 43 28 14.0 24.0 0.01 2.42 2.35 92 1021.7
20181016000442 43 17 9.0 14.0 0.01 2.42 2.35 92 1022.3
20181015235442 43 15 7.0 14.0 0.00 2.41 2.34 92 1023.1
20181015234942 43 353 7.0 13.0 0.00 2.41 2.34 92 1023.1
20181015234442 43 18 9.0 16.0 0.00 2.41 2.34 92 1023.1
20181015233942 43 15 7.0 12.0 0.00 2.41 2.34 92 1023.1
20181015233441 43 12 5.0 10.0 0.00 2.41 2.34 92 1023.1
20181015232942 43 19 5.0 8.0 0.00 2.41 2.34 92 1023.1
20181015232442 43 318 5.0 13.0 0.00 2.41 2.34 92 1023.2
20181015231942 43 338 6.0 10.0 0.00 2.41 2.34 92 1022.6
20181015231442 43 13 5.0 12.0 0.00 2.41 2.34 93 1022.6
20181015230942 43 20 6.0 12.0 0.00 2.41 2.34 93 1022.6
20181015225442 43 345 11.0 15.0 0.01 2.41 2.34 92 1022.9
20181015224942 43 357 8.0 15.0 0.01 2.41 2.34 92 1022.9
20181015222942 43 346 9.0 14.0 0.04 2.41 2.34 92 1022.9
20181015222441 43 347 6.0 12.0 0.05 2.41 2.34 92 1022.9
20181015221941 42 357 6.0 15.0 0.05 2.41 2.34 92 1022.9
20181015221442 42 350 6.0 12.0 0.05 2.41 2.34 93 1023.2
20181015220942 42 349 7.0 12.0 0.06 2.41 2.34 92 1023.2
20181015214942 42 353 8.0 17.0 0.08 2.40 2.33 93 1022.6
20181015214441 42 356 9.0 20.0 0.07 2.39 2.32 93 1022.6
20181015213942 42 340 9.0 17.0 0.08 2.38 2.31 92 1022.6
20181015213441 42 349 7.0 13.0 0.08 2.38 2.31 92 1022.6
20181015212942 42 358 6.0 13.0 0.07 2.37 2.30 92 1023.3
20181015212442 42 336 7.0 14.0 0.06 2.36 2.29 92 1023.3
20181015211942 42 335 9.0 14.0 0.06 2.36 2.29 92 1023.3
20181015211441 43 334 8.0 17.0 0.06 2.36 2.29 92 1023.1
20181015210942 43 2 9.0 18.0 0.05 2.35 2.28 92 1023.1
20181015205941 42 343 7.0 20.0 0.03 2.33 2.26 92 1023.1
20181015204941 42 350 6.0 13.0 0.02 2.32 2.25 92 1023.0
20181015204442 42 341 9.0 22.0 0.02 2.32 2.25 92 1023.4
20181015202442 42 337 9.0 17.0 0.00 2.30 2.23 92 1023.6
20181015201941 42 343 10.0 18.0 0.00 2.30 2.23 92 1023.3
20181015200941 42 344 7.0 12.0 0.00 2.30 2.23 92 1023.1
20181015200442 42 341 10.0 16.0 0.00 2.30 2.23 92 1023.1
20181015194941 42 337 7.0 16.0 0.01 2.30 2.23 92 1023.2
20181015193941 42 329 9.0 14.0 0.01 2.30 2.23 92 1023.0
20181015192442 42 345 10.0 16.0 0.01 2.30 2.23 92 1023.1
20181015191941 41 335 8.0 15.0 0.01 2.30 2.23 92 1023.0
20181015190941 41 337 9.0 17.0 0.02 2.30 2.23 92 1023.5
20181015190441 41 347 7.0 15.0 0.03 2.30 2.23 92 1023.5
20181015185941 41 337 10.0 15.0 0.02 2.29 2.22 92 1023.8
20181015185441 41 340 7.0 12.0 0.03 2.29 2.22 92 1023.9
20181015184441 41 334 10.0 14.0 0.05 2.29 2.22 92 1024.3
20181015183941 41 330 7.0 12.0 0.06 2.29 2.22 92 1024.3
20181015182941 41 331 9.0 15.0 0.07 2.29 2.22 92 1024.2
20181015181441 41 350 6.0 15.0 0.09 2.28 2.21 92 1024.0
20181015175941 41 351 9.0 17.0 0.12 2.27 2.20 92 1023.7
20181015174941 41 346 9.0 15.0 0.12 2.25 2.18 93 1024.0
20181015174441 41 350 8.0 14.0 0.12 2.24 2.17 93 1024.0
20181015173941 41 349 7.0 15.0 0.12 2.23 2.16 93 1024.0
20181015173441 41 349 6.0 12.0 0.13 2.22 2.15 92 1023.9
20181015172941 41 351 7.0 13.0 0.14 2.22 2.15 92 1023.8
20181015172441 41 345 9.0 15.0 0.14 2.21 2.14 92 1023.8
20181015171941 41 325 9.0 14.0 0.14 2.20 2.13 93 1024.0
20181015171440 40 345 7.0 14.0 0.14 2.19 2.12 93 1024.0
20181015170941 40 349 9.0 20.0 0.15 2.18 2.11 93 1024.0
20181015165942 40 347 9.0 16.0 0.15 2.15 2.08 92 1024.0
20181015165441 40 346 9.0 15.0 0.15 2.14 2.07 92 1024.0
20181015164940 40 350 6.0 13.0 0.15 2.13 2.06 92 1023.9
20181015164441 40 345 9.0 18.0 0.15 2.12 2.05 93 1023.9
20181015163941 40 347 10.0 16.0 0.14 2.11 2.04 93 1024.0
20181015162941 40 340 7.0 16.0 0.12 2.08 2.01 93 1023.9
20181015161941 40 339 9.0 21.0 0.11 2.06 1.99 93 1024.0
20181015161441 40 337 9.0 18.0 0.12 2.05 1.98 93 1024.0
20181015160941 40 327 9.0 15.0 0.10 2.03 1.96 93 1023.3
20181015160440 40 339 10.0 20.0 0.10 2.02 1.95 93 1023.3
20181015155940 40 343 13.0 24.0 0.09 2.00 1.93 93 1023.5
20181015155440 40 0 10.0 21.0 0.10 1.99 1.92 93 1023.7
20181015154940 40 350 10.0 14.0 0.10 1.98 1.91 93 1023.7
20181015154441 40 340 10.0 16.0 0.10 1.97 1.90 93 1023.7
20181015153440 40 352 9.0 20.0 0.10 1.96 1.89 93 1023.5
20181015152940 40 330 13.0 21.0 0.10 1.96 1.89 92 1023.2
20181015152440 40 342 15.0 28.0 0.10 1.95 1.88 92 1023.2
20181015151441 40 344 9.0 23.0 0.11 1.93 1.86 92 1023.2
20181015145941 40 346 9.0 20.0 0.20 1.91 1.84 92 1023.2
20181015145440 40 340 11.0 18.0 0.21 1.89 1.82 93 1023.1
20181015144941 40 351 9.0 17.0 0.22 1.88 1.81 93 1023.1
20181015144440 40 352 9.0 17.0 0.23 1.87 1.80 93 1023.7
20181015143940 40 5 9.0 16.0 0.27 1.87 1.80 93 1023.7
20181015143441 41 332 7.0 14.0 0.29 1.86 1.79 93 1023.8
20181015142941 40 322 7.0 14.0 0.30 1.86 1.79 93 1023.7
20181015142441 40 328 10.0 14.0 0.30 1.85 1.78 93 1023.4